Casper, WY

10:16 PM MST on December 09, 2019 (GMT -0700)
Natrona County International

Weather History for KCPR - October, 2019

Change the Weather History Date:

Saturday, October 26, 2019

  Actual Average Record
Temperature  
Mean Temperature 36 °F 42 °F  
Max Temperature 50 °F 55 °F 74 °F (1977)
Min Temperature 21 °F 29 °F 12 °F (2002)
Degree Days  
Heating Degree Days 29 23  
Month to date heating degree days 591 495  
Since 1 July heating degree days 762 780  
Cooling Degree Days 0 0  
Month to date cooling degree days 0 0  
Year to date cooling degree days 441 422  
Moisture  
Dew Point 24 °F    
Average Humidity 69    
Maximum Humidity 92    
Minimum Humidity 45    
Precipitation  
Precipitation 0.15 in 0.03 in 0.59 in (1989)
Month to date precipitation 1.16 0.94  
Year to date precipitation 11.86 11.10  
Snow  
Snow 1.90 in 0.30 in - ()
Month to date snowfall 9.5 5.9  
Since 1 July snowfall 9.5 7.7  
Since 1 September snowfall 9.5 7.7  
Snow Depth 1.00 in    
Sea Level Pressure  
Sea Level Pressure 29.93 in    
Wind  
Wind Speed 18 mph (NNE)    
Max Wind Speed 30 mph    
Max Gust Speed 38 mph    
Visibility 5 miles    
Events Snow    
T = Trace of Precipitation, MM = Missing Value Source: NWS Daily Summary

Daily Weather History Graph

Daily Weather History Graph

Search for Another Location

Airport or City:

Astronomy

Oct. 26, 2019 Rise Set
Actual Time 7:32 AM MDT 6:06 PM MDT
Civil Twilight 7:03 AM MDT 6:35 PM MDT
Nautical Twilight 6:30 AM MDT 7:08 PM MDT
Astronomical Twilight 5:57 AM MDT 7:41 PM MDT
Moon 5:26 AM MDT (10/26) 5:47 PM MDT (10/26)
Length of Visible Light 11h 32m
Length of Day
10h 34m
Waning Crescent, 3% of the Moon is Illuminated
Oct 26
Waning Crescent
Oct 27
New
Nov 4
First Quarter
Nov 12
Full
Nov 19
Last Quarter

Hourly Weather History & Observations

Time (MDT) Temp. Windchill Dew Point Humidity Pressure Visibility Wind Dir Wind Speed Gust Speed Precip Events Conditions
12:53 AM 46.9 °F - 27.0 °F 46% 29.82 in 10.0 mi SW 18.4 mph - N/A   Clear
1:53 AM 46.9 °F - 27.0 °F 46% 29.77 in 10.0 mi SW 17.3 mph - N/A   Clear
2:53 AM 46.9 °F - 28.0 °F 48% 29.75 in 10.0 mi SW 15.0 mph 23.0 mph N/A   Clear
3:53 AM 46.9 °F - 28.0 °F 48% 29.71 in 10.0 mi SW 19.6 mph - N/A   Clear
4:53 AM 46.0 °F 38.0 °F 28.9 °F 51% 29.70 in 10.0 mi SW 21.9 mph 33.4 mph N/A   Clear
5:53 AM 45.0 °F 36.4 °F 28.9 °F 53% 29.71 in 10.0 mi SW 23.0 mph 33.4 mph N/A   Clear
6:53 AM 43.0 °F 34.5 °F 28.0 °F 56% 29.71 in 10.0 mi SW 19.6 mph - N/A   Clear
7:53 AM 44.1 °F 36.8 °F 28.9 °F 55% 29.68 in 10.0 mi SW 16.1 mph - N/A   Clear
8:53 AM 46.0 °F 39.3 °F 28.9 °F 51% 29.72 in 10.0 mi SW 16.1 mph - N/A   Clear
9:41 AM 48.9 °F - 30.9 °F 50% 29.81 in 10.0 mi North 17.3 mph 26.5 mph N/A   Clear
9:53 AM 41.0 °F 30.9 °F 30.9 °F 67% 29.77 in 10.0 mi North 24.2 mph 31.1 mph N/A   Clear
10:00 AM 41.0 °F 30.5 °F 30.9 °F 67% 29.82 in 10.0 mi North 26.5 mph - N/A   Clear
10:53 AM 39.9 °F 30.2 °F 30.9 °F 70% 29.80 in 10.0 mi North 20.7 mph - N/A   Scattered Clouds
11:01 AM 39.9 °F 30.2 °F 30.9 °F 70% 29.85 in 10.0 mi North 20.7 mph - N/A   Mostly Cloudy
11:53 AM 36.0 °F 25.6 °F 28.9 °F 76% 29.84 in 10.0 mi NNE 18.4 mph - N/A   Overcast
12:53 PM 33.1 °F 19.6 °F 26.1 °F 75% 29.87 in 10.0 mi NNE 27.6 mph 36.8 mph N/A   Overcast
1:53 PM 32.0 °F 18.9 °F 23.0 °F 69% 29.87 in 10.0 mi NNE 24.2 mph 33.4 mph N/A   Overcast
2:53 PM 30.9 °F 18.7 °F 23.0 °F 72% 29.89 in 10.0 mi NNE 19.6 mph 31.1 mph N/A   Overcast
3:53 PM 28.9 °F 15.1 °F 21.9 °F 75% 29.93 in 10.0 mi NNE 23.0 mph - N/A   Overcast
4:53 PM 28.0 °F 14.6 °F 21.9 °F 78% 29.96 in 8.0 mi NNE 20.7 mph - 0.00 in Snow Light Snow
5:34 PM 27.0 °F 11.9 °F 21.0 °F 78% 29.93 in 8.0 mi NNE 25.3 mph 38.0 mph 0.00 in Snow Light Snow
5:41 PM 26.1 °F 11.3 °F 21.0 °F 81% 29.93 in 1.8 mi NNE 23.0 mph 33.4 mph 0.00 in Snow Light Snow
5:46 PM 26.1 °F 11.0 °F 21.0 °F 81% 29.93 in 0.8 mi NNE 24.2 mph 32.2 mph 0.00 in Snow Light Snow
5:53 PM 26.1 °F 12.3 °F 21.9 °F 84% 29.95 in 0.8 mi NNE 19.6 mph 32.2 mph 0.01 in Snow Light Snow
6:26 PM 26.1 °F 13.6 °F 21.9 °F 84% 29.96 in 2.0 mi NNE 16.1 mph - 0.00 in Snow Light Snow
6:42 PM 25.0 °F 10.6 °F 21.0 °F 85% 29.96 in 2.0 mi NNE 20.7 mph 24.2 mph 0.00 in   Overcast
6:50 PM 24.8 °F 11.9 °F 21.2 °F 86% 29.98 in 3.0 mi NNE 16.1 mph - 0.00 in Snow Light Snow
6:53 PM 25.0 °F 11.7 °F 21.9 °F 88% 30.03 in 2.0 mi NNE 17.3 mph - 0.00 in Snow Light Snow
7:01 PM 25.0 °F 13.1 °F 21.9 °F 88% 29.98 in 1.8 mi NNE 13.8 mph - 0.00 in Snow Light Snow
7:19 PM 24.1 °F 10.6 °F 21.0 °F 88% 29.98 in 1.2 mi NNE 17.3 mph - 0.01 in Snow Light Snow
7:32 PM 24.1 °F 11.0 °F 21.0 °F 88% 29.98 in 2.5 mi NNE 16.1 mph 26.5 mph 0.01 in Snow Light Snow
7:39 PM 24.1 °F 10.1 °F 21.0 °F 88% 30.00 in 3.0 mi NNE 18.4 mph - 0.01 in Snow Light Snow
7:53 PM 24.1 °F 11.5 °F 19.9 °F 84% 30.06 in 4.0 mi NNE 15.0 mph 23.0 mph 0.01 in Snow Light Snow
8:18 PM 24.1 °F 11.0 °F 19.9 °F 84% 30.01 in 1.8 mi NNE 16.1 mph - 0.00 in Snow Light Snow
8:27 PM 23.0 °F 11.1 °F 21.0 °F 92% 30.05 in 1.0 mi NNE 12.7 mph - 0.01 in Snow Light Snow
8:40 PM 23.0 °F 11.1 °F 21.0 °F 92% 30.03 in 1.0 mi North 12.7 mph - 0.01 in Snow Light Snow
8:53 PM 21.9 °F 8.2 °F 19.9 °F 92% 30.08 in 1.2 mi NNE 16.1 mph - 0.02 in Snow Light Snow
9:08 PM 21.9 °F 7.3 °F 19.0 °F 89% 30.05 in 1.5 mi NNE 18.4 mph 27.6 mph 0.01 in Snow Light Snow
9:26 PM 21.9 °F 9.2 °F 19.0 °F 89% 30.06 in 1.0 mi NE 13.8 mph - 0.01 in Snow Light Snow
9:40 PM 21.9 °F 12.5 °F 19.9 °F 92% 30.06 in 0.8 mi NE 8.1 mph - 0.02 in Snow Light Snow
9:53 PM 21.9 °F 11.0 °F 19.0 °F 89% 30.10 in 0.8 mi ENE 10.4 mph - 0.03 in Snow Light Snow
10:04 PM 21.0 °F 8.6 °F 19.0 °F 92% 30.05 in 1.0 mi NE 12.7 mph - 0.00 in Snow Light Snow
10:15 PM 21.0 °F 9.3 °F 19.0 °F 92% 30.05 in 0.8 mi ENE 11.5 mph - 0.01 in Snow Light Snow
10:38 PM 21.0 °F 9.9 °F 19.0 °F 92% 30.06 in 1.0 mi NE 10.4 mph - 0.02 in Snow Light Snow
10:53 PM 21.0 °F 10.6 °F 19.0 °F 92% 30.13 in 1.2 mi NE 9.2 mph - 0.02 in Snow Light Snow
11:53 PM 21.0 °F 10.6 °F 19.0 °F 92% 30.15 in 1.2 mi NE 9.2 mph - 0.06 in Snow Light Snow